Weather History for HEAX - April, 2013

Change the Weather History Date:

Monday, April 29, 2013

  Actual Average Record
Temperature  
Mean Temperature 80 °F -  
Max Temperature 92 °F 77 °F 92 °F (2013)
Min Temperature 67 °F 62 °F 51 °F (1997)
Cooling Degree Days 14    
Growing Degree Days 30 (Base 50)    
Moisture  
Dew Point 57 °F    
Average Humidity 52    
Maximum Humidity 83    
Minimum Humidity 18    
Precipitation  
Precipitation 0.00 in 0.00 in - ()
Sea Level Pressure  
Sea Level Pressure 29.91 in    
Wind  
Wind Speed 9 mph ()    
Max Wind Speed 17 mph    
Max Gust Speed -    
Visibility 6.0 miles    
Events      
Averages and records for this station are not official NWS values.
T = Trace of Precipitation, MM = Missing Value Source: Averaged Metar Reports

Daily Weather History Graph

Daily Weather History Graph

Search for Another Location

Airport or City:

Trip Planner

Search our weather history database for the weather conditions in past years. The results will help you decide how hot, cold, wet, or windy it might be!

Date:

Astronomy

Apr. 29, 2013 Rise Set
Actual Time 5:17 AM EET 6:38 PM EET
Civil Twilight 4:51 AM EET 7:03 PM EET
Nautical Twilight 4:21 AM EET 7:34 PM EET
Astronomical Twilight 3:49 AM EET 8:06 PM EET
Moon 10:39 PM EET (4/29) 8:23 AM EET (4/29)
Length of Visible Light 14h 11m
Length of Day
13h 20m
Waning Gibbous, 82% of the Moon is Illuminated
Apr 29
Waning Gibbous
May 2
Last Quarter
May 10
New
May 18
First Quarter
May 25
Full

Hourly Weather History & Observations

Time (EET) Temp. Heat Index Dew Point Humidity Pressure Visibility Wind Dir Wind Speed Gust Speed Precip Events Conditions
12:00 AM 69.8 °F - 60.8 °F 73% 29.92 in - NNE 11.5 mph - N/A   Clear
1:00 AM 69.8 °F - 60.8 °F 73% 29.89 in - NNE 9.2 mph - N/A   Clear
2:00 AM 69 °F - 61 °F 68% 29.89 in 6 mi NE 9.2 mph - -  
2:00 AM 68.0 °F - 60.8 °F 78% 29.89 in - NE 9.2 mph - N/A   Clear
3:00 AM 68.0 °F - 62.6 °F 83% 29.89 in - NE 9.2 mph - N/A   Clear
4:00 AM 68.0 °F - 62.6 °F 83% 29.89 in - NE 8.1 mph - N/A   Clear
5:00 AM 68.0 °F - 60.8 °F 78% 29.89 in - NE 8.1 mph - N/A   Clear
6:00 AM 69.8 °F - 60.8 °F 73% 29.89 in - NE 8.1 mph - N/A   Clear
7:00 AM 73.4 °F - 60.8 °F 65% 29.92 in - NE 8.1 mph - N/A   Clear
8:00 AM 77 °F - 58 °F 41% 29.92 in 6 mi NE 12.7 mph - -  
8:00 AM 77.0 °F - 57.2 °F 50% 29.92 in - NE 12.7 mph - N/A   Clear
9:00 AM 82.4 °F 82.0 °F 57.2 °F 42% 29.92 in - NE 11.5 mph - N/A   Clear
10:00 AM 86.0 °F 84.9 °F 57.2 °F 37% 29.92 in - NE 9.2 mph - N/A   Clear
11:00 AM 87.8 °F 86.1 °F 55.4 °F 33% 29.95 in - NNE 11.5 mph - N/A   Clear
1:00 PM 91.4 °F 89.4 °F 55.4 °F 29% 29.95 in - NE 17.3 mph - N/A   Clear
2:00 PM 91 °F - 53 °F 18% 29.94 in 6 mi NE 16.1 mph - -  
2:00 PM 91.4 °F - 51.8 °F 26% 29.92 in - NE 16.1 mph - N/A   Clear
3:00 PM 89.6 °F - 51.8 °F 27% 29.92 in - NE 15.0 mph - N/A   Clear
4:00 PM 86.0 °F 84.2 °F 53.6 °F 33% 29.89 in - NE 13.8 mph - N/A   Clear
5:00 PM 87.8 °F - 48.2 °F 25% 29.86 in - NE 15.0 mph - N/A   Clear
6:00 PM 84.2 °F - 48.2 °F 29% 29.89 in - NE 11.5 mph - N/A   Clear
7:00 PM 77.0 °F - 50.0 °F 39% 29.89 in - NNE 11.5 mph - N/A   Clear
8:00 PM 74 °F - 59 °F 49% 29.91 in 6 mi North 5.8 mph - -  
8:00 PM 73.4 °F - 59.0 °F 61% 29.89 in - North 5.8 mph - N/A   Clear
9:00 PM 71.6 °F - 59.0 °F 64% 29.92 in - North 5.8 mph - N/A   Clear
10:00 PM 71.6 °F - 57.2 °F 60% 29.92 in - NNE 6.9 mph - N/A   Clear
11:00 PM 71.6 °F - 57.2 °F 60% 29.92 in - NNE 8.1 mph - N/A   Clear